AEROCUBE 12B (43557 NORAD) Tracking and Keplerian Element Data

This shows tracking and keplerian element data for the satellite.

Feedback or suggestion? Click here.




ElementValue
Catalog43557
NameAEROCUBE 12B
Epoch Orbit4765
Epoch Day144.49444639
Epoch Year2019
RAAN177.6434
Inclination51.6416
Eccentricity0.0008357
Argument of Perigee342.6898
Mean Anonmoly17.3796
Mean Motion15.28522559
Decay Rate1.122E-05
L11 43557U 18046D 19144.49444639 .00001122 00000-0 52514-4 0 9992
L22 43557 51.6416 177.6434 0008357 342.6898 17.3796 15.28522559 47653

Live tracking and technical data element details for AEROCUBE 12B (NORAD 43557). AEROCUBE 12B can be tracked NOW for your location showing map with azimuth and elevation plus other details from your city location.

Track the satellite on the map from your city or location and see movement details for azimuth, elevation, latitude, longitude, range, height, and movement on the map or in text.







IsCatalogInMostPopularTable: catalog: 43557, numindb: 159
Update: records affected: 1



GetName: 43557 AEROCUBE 12B

Hit Count: updated at: Fri, 24 May 2019 21:02:48 GMT